Lafayette, CO

1:02 PM MST on January 24, 2017 (GMT -0700)
Erie Municipal Airport

Weather History for KEIK - November, 2011

Change the Weather History Date:

Wednesday, November 2, 2011

  Actual Average (KBJC) Record (KBJC)
Temperature  
Mean Temperature 24 °F -  
Max Temperature 32 °F 52 °F 75 °F (2005)
Min Temperature 17 °F 33 °F 0 °F (1991)
Degree Days  
Heating Degree Days 40    
Moisture  
Dew Point 26 °F    
Average Humidity 89    
Maximum Humidity 100    
Minimum Humidity 69    
Precipitation  
Precipitation 0.00 in - - ()
Sea Level Pressure  
Sea Level Pressure 30.39 in    
Wind  
Wind Speed 9 mph (North)    
Max Wind Speed 15 mph    
Max Gust Speed 22 mph    
Visibility 6 miles    
Events Snow    
Averages and records for this station are not official NWS values.
T = Trace of Precipitation, MM = Missing Value Source: NWS Daily Summary

Daily Weather History Graph

Daily Weather History Graph

Search for Another Location

Airport or City:

Trip Planner

Search our weather history database for the weather conditions in past years. The results will help you decide how hot, cold, wet, or windy it might be!

Date:

Astronomy

Nov. 02, 2011 Rise Set
Actual Time 7:30 AM MDT 5:56 PM MDT
Civil Twilight 7:02 AM MDT 6:24 PM MDT
Nautical Twilight 6:29 AM MDT 6:56 PM MDT
Astronomical Twilight 5:58 AM MDT 7:28 PM MDT
Moon 1:51 PM MDT (11/2) No Moon Set
Length of Visible Light 11h 22m
Length of Day
10h 26m
Waxing Crescent, 51% of the Moon is Illuminated
Nov 2
Waxing Crescent
Nov 10
Full
Nov 18
Last Quarter
Nov 24
New
Dec 2
First Quarter

Hourly Weather History & Observations

Time (MDT) Temp. Windchill Dew Point Humidity Pressure Visibility Wind Dir Wind Speed Gust Speed Precip Events Conditions
12:04 AM 30.2 °F 19.3 °F 30.2 °F 100% 30.20 in 1.0 mi North 15.0 mph 18.4 mph N/A Snow Snow
12:44 AM 30.2 °F 19.8 °F 30.2 °F 100% 30.22 in 0.8 mi NNW 13.8 mph - N/A Snow Snow
1:24 AM 30.2 °F 19.3 °F 30.2 °F 100% 30.23 in 0.8 mi NNW 15.0 mph 20.7 mph N/A Snow Snow
1:44 AM 30.2 °F 19.8 °F 30.2 °F 100% 30.24 in 1.0 mi North 13.8 mph - N/A Snow Snow
2:04 AM 30.2 °F 21.3 °F 30.2 °F 100% 30.25 in 1.2 mi North 10.4 mph - N/A Snow Light Snow
2:24 AM 30.2 °F 19.3 °F 30.2 °F 100% 30.25 in 1.0 mi North 15.0 mph 21.9 mph N/A Snow Snow
2:44 AM 30.2 °F 20.8 °F 30.2 °F 100% 30.26 in 1.2 mi NNW 11.5 mph - N/A Snow Light Snow
3:04 AM 30.2 °F 19.3 °F 30.2 °F 100% 30.26 in 1.0 mi North 15.0 mph 20.7 mph N/A Snow Snow
4:04 AM 30.2 °F 20.2 °F 30.2 °F 100% 30.29 in 1.2 mi North 12.7 mph - N/A Snow Light Snow
5:04 AM 30.2 °F 20.2 °F 30.2 °F 100% 30.32 in 1.2 mi NNW 12.7 mph 17.3 mph N/A Snow Light Snow
5:44 AM 30.2 °F 21.3 °F 30.2 °F 100% 30.33 in 1.8 mi NNW 10.4 mph - N/A Snow Light Snow
6:04 AM 30.2 °F 21.3 °F 30.2 °F 100% 30.35 in 1.8 mi NNW 10.4 mph - N/A Snow Light Snow
6:24 AM 30.2 °F 20.8 °F 30.2 °F 100% 30.36 in 1.8 mi NNW 11.5 mph 17.3 mph N/A Snow Light Snow
8:24 AM 30.2 °F 22.6 °F 28.4 °F 93% 30.42 in 4.0 mi NNW 8.1 mph - N/A Snow Light Snow
8:44 AM 30.2 °F 22.6 °F 28.4 °F 93% 30.42 in 1.8 mi NW 8.1 mph - N/A Snow Light Snow
9:04 AM 30.2 °F 24.3 °F 28.4 °F 93% 30.43 in 1.5 mi NNW 5.8 mph - N/A Snow Light Snow
9:24 AM 30.2 °F 23.4 °F 28.4 °F 93% 30.44 in 3.0 mi North 6.9 mph - N/A Snow Light Snow
9:44 AM 30.2 °F 24.3 °F 28.4 °F 93% 30.44 in 3.0 mi North 5.8 mph - N/A Snow Light Snow
10:04 AM 30.2 °F 25.4 °F 28.4 °F 93% 30.45 in 4.0 mi NNW 4.6 mph - N/A Snow Light Snow
10:24 AM 30.2 °F 24.3 °F 28.4 °F 93% 30.45 in 2.0 mi NNW 5.8 mph - N/A Snow Light Snow
10:44 AM 30.2 °F 21.9 °F 28.4 °F 93% 30.45 in 7.0 mi NNE 9.2 mph - N/A Snow Light Snow
11:04 AM 30.2 °F 20.2 °F 28.4 °F 93% 30.46 in 10.0 mi North 12.7 mph - N/A   Overcast
11:24 AM 30.2 °F 21.3 °F 28.4 °F 93% 30.47 in 10.0 mi North 10.4 mph - N/A   Overcast
11:44 AM 32.0 °F 24.8 °F 28.4 °F 87% 30.47 in 10.0 mi North 8.1 mph - N/A   Overcast
12:24 PM 32.0 °F 26.4 °F 24.8 °F 75% 30.45 in 10.0 mi NNE 5.8 mph - N/A   Overcast
12:44 PM 32.0 °F - 26.6 °F 80% 30.45 in 10.0 mi Calm Calm - N/A   Scattered Clouds
1:04 PM 32.0 °F 27.5 °F 24.8 °F 75% 30.45 in 10.0 mi NE 4.6 mph - N/A   Scattered Clouds
1:24 PM 32.0 °F 26.4 °F 23.0 °F 69% 30.44 in 10.0 mi NE 5.8 mph - N/A   Clear
1:44 PM 32.0 °F 25.6 °F 23.0 °F 69% 30.44 in 10.0 mi NE 6.9 mph - N/A   Clear
2:04 PM 32.0 °F 28.7 °F 23.0 °F 69% 30.44 in 10.0 mi NNE 3.5 mph - N/A   Clear
2:24 PM 32.0 °F 28.7 °F 23.0 °F 69% 30.44 in 10.0 mi ENE 3.5 mph - N/A   Clear
2:44 PM 32.0 °F 28.7 °F 23.0 °F 69% 30.43 in 10.0 mi NE 3.5 mph - N/A   Clear
3:04 PM 32.0 °F - 23.0 °F 69% 30.43 in 10.0 mi Calm Calm - N/A   Clear
3:24 PM 32.0 °F - 23.0 °F 69% 30.43 in 10.0 mi Calm Calm - N/A   Clear
3:44 PM 32.0 °F - 23.0 °F 69% 30.42 in 10.0 mi Calm Calm - N/A   Clear
4:04 PM 32.0 °F 28.7 °F 23.0 °F 69% 30.41 in 10.0 mi SE 3.5 mph - N/A   Clear
4:24 PM 32.0 °F - 23.0 °F 69% 30.41 in 10.0 mi Calm Calm - N/A   Clear
4:44 PM 32.0 °F 27.5 °F 23.0 °F 69% 30.41 in 10.0 mi ESE 4.6 mph - N/A   Clear
5:04 PM 32.0 °F 26.4 °F 24.8 °F 75% 30.41 in 10.0 mi ESE 5.8 mph - N/A   Clear
5:24 PM 30.2 °F 26.7 °F 24.8 °F 80% 30.41 in 10.0 mi East 3.5 mph - N/A   Clear
5:44 PM 30.2 °F 25.4 °F 24.8 °F 80% 30.41 in 10.0 mi East 4.6 mph - N/A   Clear
6:04 PM 28.4 °F - 24.8 °F 86% 30.40 in 10.0 mi Calm Calm - N/A   Clear
6:24 PM 26.6 °F - 23.0 °F 86% 30.41 in 10.0 mi Calm Calm - N/A   Clear
6:44 PM 23.0 °F - 23.0 °F 100% 30.41 in 10.0 mi Calm Calm - N/A   Clear
7:04 PM 21.2 °F - 21.2 °F 100% 30.41 in 10.0 mi Calm Calm - N/A   Clear
7:24 PM 21.2 °F - 21.2 °F 100% 30.41 in 7.0 mi Calm Calm - N/A   Clear
7:44 PM 21.2 °F 16.4 °F 19.4 °F 93% 30.41 in 7.0 mi SW 3.5 mph - N/A   Clear
8:04 PM 19.4 °F 14.3 °F 19.4 °F 100% 30.40 in 7.0 mi WSW 3.5 mph - N/A   Clear
8:24 PM 19.4 °F - 19.4 °F 100% 30.41 in 7.0 mi Calm Calm - N/A   Clear
8:44 PM 17.6 °F - 17.6 °F 100% 30.41 in 7.0 mi Calm Calm - N/A   Clear
9:04 PM 17.6 °F - 17.6 °F 100% 30.41 in 7.0 mi Calm Calm - N/A   Clear
9:24 PM 17.6 °F - 17.6 °F 100% 30.41 in 7.0 mi Calm Calm - N/A   Clear
9:44 PM 17.6 °F 12.3 °F 17.6 °F 100% 30.41 in 10.0 mi SW 3.5 mph - N/A   Clear
10:04 PM 17.6 °F - 17.6 °F 100% 30.41 in 10.0 mi Calm Calm - N/A   Clear
10:24 PM 17.6 °F 10.7 °F 17.6 °F 100% 30.41 in 10.0 mi SSW 4.6 mph - N/A   Clear
10:44 PM 19.4 °F 14.3 °F 17.6 °F 93% 30.40 in 10.0 mi South 3.5 mph - N/A   Clear
11:04 PM 19.4 °F 14.3 °F 17.6 °F 93% 30.40 in 10.0 mi SSW 3.5 mph - N/A   Clear
11:24 PM 19.4 °F 14.3 °F 17.6 °F 93% 30.39 in 10.0 mi South 3.5 mph - N/A   Clear
11:44 PM 17.6 °F - 14.0 °F 86% 30.39 in 7.0 mi Calm Calm - N/A   Clear